Regional Weather Roundup
Issued by NWS State College, PA

Home | Current Version | Previous Version | Graphics & Text | Print | Product List | Glossary Off
Versions: 1 2 3 4 5 6 7 8 9 10 11 12 13 14 15 16 17 18 19 20 21 22 23 24 25 26 27 28 29 30 31 32 33 34 35 36 37 38 39 40 41 42 43 44 45 46 47 48 49 50

000
ASUS41 KCTP 312303
RWRCTP

REGIONAL WEATHER ROUNDUP
NATIONAL WEATHER SERVICE STATE COLLEGE PA
600 PM EST SAT JAN 31 2015

Note: "fair" indicates few or no clouds below 12,000 feet with no
significant weather and/or obstructions to visibility.

* = STATION THAT DOES NOT REPORT PRECIPITATION /E.G. RAIN...SNOW...ETC/
    THUNDER OR FOG.

PAZ002>004-007>009-013>016-020>023-029>032-010000-
WESTERN PENNSYLVANIA

CITY           SKY/WX    TMP DP  RH WIND       PRES   REMARKS
ERIE           CLOUDY    26  15  63 S10       30.22R
MEADVILLE      CLEAR     22  13  68 SW7       30.18S WCI  13
FRANKLIN*      CLEAR     21  10  63 SW3       30.21R
NEW CASTLE     FAIR      23  14  68 SW5       30.25S
BEAVER COUNTY  CLEAR     27  14  59 SW5       30.23R
BUTLER*        PTCLDY    25  12  58 SW7       30.24S
PITTSBURGH INT PTCLDY    26  15  63 SW7       30.24R
PITTSBURGH     CLEAR     25  11  55 SW6       30.23S
INDIANA*       CLEAR     21  12  68 W6        30.25S WCI  14
LATROBE        PTCLDY    25  14  63 W7        30.26R
WASHINGTON CO* PTCLDY    27  14  59 CALM      30.26S
$$

PAZ004>006-010>012-017>019-024>028-033>037-041-042-045-046-049>053-010000-
CENTRAL PENNSYLVANIA

CITY           SKY/WX    TMP DP  RH WIND       PRES   REMARKS
BRADFORD       CLOUDY    18   9  68 W9        30.13R WCI   7
DUBOIS         CLEAR     19   9  65 W6        30.16R WCI  11
CLEARFIELD     CLEAR     20   8  60 W7        30.19R WCI  11
JOHNSTOWN      CLEAR     19   9  65 W10       30.14R WCI   7
ALTOONA        CLEAR     21   9  59 W9        30.20R WCI  11
STATE COLLEGE  CLEAR     21   9  58 W12       30.20R WCI   9
WILLIAMSPORT   CLEAR     25   7  46 W7        30.20R
SELINSGROVE    CLEAR     24   7  48 W5        30.22R
FT INDIANTOWN  CLEAR     24   7  47 W12       30.22R WCI  13
CAPITAL CITY   CLEAR     25   6  44 W7        30.24R
HARRISBURG     PTCLDY    22   6  50 NW9       30.24R WCI  12
YORK           CLEAR     18   6  59 NW3       30.23R
$$

PAZ038>040-043-044-047-048-054-055-060>062-067>071-010000-
EASTERN PENNSYLVANIA

CITY           SKY/WX    TMP DP  RH WIND       PRES   REMARKS
SCRANTON       CLEAR     19   4  51 NW7       30.16R WCI  10
MOUNT POCONO   CLEAR     15   2  56 NW16G24   30.04R WCI  -1
ALLENTOWN      CLEAR     24   5  44 W7        30.18R
QUAKERTOWN*    CLEAR     23   7  50 W6        30.18R
READING        CLEAR     23   6  48 NW6       30.21R
LANCASTER      CLEAR     23   7  50 W9        30.22R WCI  13
COATESVILLE    CLEAR     25  10  54 W6        30.21R
POTTSTOWN      CLEAR     23   6  48 W8        30.21R WCI  14
BLUE BELL      CLEAR     27   9  46 W5        30.19R
DOYLESTOWN     CLEAR     22   6  50 W6        30.17R WCI  14
WILLOW GROVE   NOT AVBL
NORTH PHILA    CLEAR     27   5  39 W13       30.22R
PHILADELPHIA   PTCLDY    27   5  39 W13       30.23R
$$


USA.gov is the U.S. government's official web portal to all federal, state and local government web resources and services.